FENGYUN 1C DEB

Satellite information

Favourite Embed

Satellite Type and Status

DEBRISIN ORBIT

Key statistics

Satellite FENGYUN 1C DEB at a glance.

Uptime

9715

Days in orbit

Revolutions

≈ 14.4

Per day

Orbit

SSO

Sun Synchronous Orbit

Inclination

98.9

Latest

Satellite identification and parameters

Extended collection of information and parameters for FENGYUN 1C DEB.

Object identification

Identified? True

Debris? True

Object name: FENGYUN 1C DEB

International designator: 1999-025ABK

Object number (NORAD): 30348

Object ID (CCSDS): 30348

Country: PEOPLES REPUBLIC OF CHINA (PRC)

Current information (Y/N): Y

RCS size: SMALL

Orbital parameters

Period: 100.341 minutes

Inclination: 98.8629 deg

SMA: 7152.856 km

Apoapsis: 787.013 km

Periapsis: 762.43 km

RAAN: 81.5774 deg

Eccentricy: 0.00171836

Argument of periapsis: 16.1491 deg

Mean anomaly: 108.2791 deg

Mean motion: 14.351044 rev/day

Mean motion (dot): 0.00008327 rev/day2

B* drag term: 0.0029260558 1/REarth

Two-line elements (TLE)

Creation date: Dec. 13, 2025, 4:32 a.m.

Reference frame: TEME

Reference center: EARTH

Epoch: Dec. 12, 2025, 7:40 p.m. UTC

TLE line 0: 0 FENGYUN 1C DEB

TLE line 1: 1 30348U 99025ABK 25346.81970377 .00008327 00000-0 29261-2 0 9997

TLE line 2: 2 30348 98.8629 81.5774 0017184 16.1491 108.2791 14.35104400975356

Live tracking on map

Real-time ground track for satellite FENGYUN 1C DEB.

In-orbit conjunctions

A list of the most updated potential collisions computed for object FENGYUN 1C DEB.

Target Orbit TCA Probability of collision Miss distance Type
IRIDIUM 42 LEO 2025-10-16 15:40:58 0.0003936895 441.0 (m) PAYLOAD
CZ-4B DEB LEO 2025-07-10 22:39:23 0.0002401673 89.0 (m) DEBRIS
SL-8 R/B LEO 2025-06-14 19:43:34 0.0001631732 319.0 (m) ROCKET BODY
COSMOS 2251 DEB LEO 2024-08-10 05:29:58 0.0001085347 144.0 (m) DEBRIS

Associated space launch

Chinese polar orbiting meteorological satellite

FENGYUN 1C DEB was lifted into orbit during the mission ‘Long March 4B | Feng Yun 1C’, on board a Long March 4B space rocket.

The launch took place on May 10, 1999, 1:33 a.m. from Launch Complex 7.

For more information about the launch, click the button.

Launch to space Long March 4B | Feng Yun 1C
Long March 4B | Feng Yun 1C

Agency: N/A

Status: Launch Successful

Launch date: May 10, 1999, 1:33 a.m. UTC

Rocket: Long March 4B

Launch pad: Launch Complex 7

Location: Taiyuan Satellite Launch Center, People's Republic of China

...

Latest news about this satellite

There are no fresh news available about this satellite. Check back as we update our databases every day.


Newsletter sign-up

Weekly statistics, charts and insights to help you stay on top of the space industry.